Back to catalog

STARLINK-4382

AliveCommunicationsSSO
NORAD 53194·PAYLOAD·🇺🇸 United States

Launched Jul 22, 2022 from Vandenberg Space Force Base

Loading…

Next Passes (next 24 hours)

TLE

FreshSource: CelesTrak SupGP

Epoch: Sep 15, 2026, 01:52 UTC

1 53194C 22084F   26258.07826389  .00064013  00000+0  19869-2 0  2580
2 53194  97.2830 313.8854 0001572  87.9995 356.5722 15.33410299    15

Track STARLINK-4382 in real time with AllMySat

Download on the App Store